Weather History for KBUF - August, 2014

Change the Weather History Date:

Tuesday, August 12, 2014

  Actual Average Record
Temperature  
Mean Temperature 73 °F 70 °F  
Max Temperature 80 °F 79 °F 93 °F (1988)
Min Temperature 65 °F 62 °F 49 °F (1967)
Degree Days  
Heating Degree Days 0 0  
Month to date heating degree days 0 0  
Since 1 June heating degree days 38 73  
Since 1 July heating degree days 10 9  
Cooling Degree Days 8 6  
Month to date cooling degree days 61 72  
Year to date cooling degree days 362 398  
Since 1 June cooling degree days 339 372  
Growing Degree Days 23 (Base 50)    
Moisture  
Dew Point 63 °F    
Average Humidity 72    
Maximum Humidity 87    
Minimum Humidity 57    
Precipitation  
Precipitation 0.75 in 0.11 in 0.97 in (1908)
Month to date precipitation 2.30 1.31  
Year to date precipitation 29.08 23.21  
Snow  
Snow 0.00 in 0.00 in 0.00 in ()
Month to date snowfall 0.0 0.0  
Since 1 June snowfall 0.0 0.0  
Since 1 July snowfall 0.0 0.0  
Snow Depth 0.00 in    
Sea Level Pressure  
Sea Level Pressure 29.75 in    
Wind  
Wind Speed 12 mph (South)    
Max Wind Speed 23 mph    
Max Gust Speed 30 mph    
Visibility 8 miles    
Events Rain , Thunderstorm    
T = Trace of Precipitation, MM = Missing Value Source: NWS Daily Summary

Daily Weather History Graph

Daily Weather History Graph

Search for Another Location

Airport or City:

Trip Planner

Search our weather history database for the weather conditions in past years. The results will help you decide how hot, cold, wet, or windy it might be!

Date:

Astronomy

Aug. 12, 2014 Rise Set
Actual Time 6:17 AM EDT 8:21 PM EDT
Civil Twilight 5:46 AM EDT 8:52 PM EDT
Nautical Twilight 5:08 AM EDT 9:30 PM EDT
Astronomical Twilight 4:26 AM EDT 10:11 PM EDT
Moon 9:22 PM EDT (8/12) 8:37 AM EDT (8/12)
Length of Visible Light 15h 05m
Length of Day
14h 03m
Waning Gibbous, 95% of the Moon is Illuminated
Aug 12
Waning Gibbous
Aug 17
Last Quarter
Aug 25
New
Sep 2
First Quarter
Sep 8
Full

Hourly Weather History & Observations

Time (EDT) Temp. Dew Point Humidity Pressure Visibility Wind Dir Wind Speed Gust Speed Precip Events Conditions
12:54 AM 73.0 °F 57.0 °F 57% 29.82 in 10.0 mi South 20.7 mph 27.6 mph N/A   Overcast
1:54 AM 66.9 °F 62.1 °F 84% 29.81 in 6.0 mi SSE 12.7 mph 21.9 mph 0.08 in Rain Light Rain
2:54 AM 66.9 °F 62.1 °F 84% 29.78 in 3.0 mi SSE 11.5 mph - 0.05 in Rain Rain
3:54 AM 66.9 °F 62.1 °F 84% 29.76 in 7.0 mi South 15.0 mph - 0.04 in Rain Light Rain
4:54 AM 66.0 °F 63.0 °F 90% 29.75 in 7.0 mi SSE 16.1 mph - 0.07 in Rain Rain
5:54 AM 66.9 °F 63.0 °F 87% 29.74 in 10.0 mi SSE 12.7 mph 20.7 mph 0.02 in   Overcast
6:54 AM 68.0 °F 62.6 °F 83% 29.75 in 10.0 mi South 16.1 mph 24.2 mph N/A Rain Light Rain
7:54 AM 68.0 °F 63.0 °F 84% 29.75 in 10.0 mi South 12.7 mph - 0.02 in   Overcast
8:54 AM 70.0 °F 63.0 °F 78% 29.76 in 10.0 mi South 15.0 mph 26.5 mph N/A   Mostly Cloudy
9:52 AM 71.6 °F 62.6 °F 73% 29.77 in 10.0 mi SSW 12.7 mph - N/A   Mostly Cloudy
9:54 AM 71.1 °F 63.0 °F 75% 29.76 in 10.0 mi South 12.7 mph - N/A   Mostly Cloudy
10:54 AM 73.0 °F 64.0 °F 73% 29.76 in 10.0 mi South 15.0 mph 21.9 mph N/A   Mostly Cloudy
11:05 AM 73.9 °F 64.0 °F 71% 29.77 in 10.0 mi South 19.6 mph - N/A   Mostly Cloudy
11:49 AM 73.4 °F 64.4 °F 73% 29.77 in 10.0 mi South 18.4 mph - N/A   Mostly Cloudy
11:54 AM 73.9 °F 64.0 °F 71% 29.76 in 10.0 mi South 17.3 mph - N/A   Mostly Cloudy
1:54 PM 75.9 °F 64.0 °F 67% 29.75 in 10.0 mi South 15.0 mph - N/A   Mostly Cloudy
2:54 PM 78.1 °F 64.9 °F 64% 29.73 in 10.0 mi South 12.7 mph - N/A   Scattered Clouds
3:54 PM 77.0 °F 64.0 °F 64% 29.71 in 10.0 mi SSE 12.7 mph - N/A   Mostly Cloudy
4:35 PM 75.9 °F 64.0 °F 67% 29.72 in 10.0 mi South 13.8 mph - N/A Thunderstorm Thunderstorm
4:54 PM 75.9 °F 64.0 °F 67% 29.72 in 10.0 mi South 12.7 mph - N/A Thunderstorm Thunderstorm
5:18 PM 68.0 °F 62.1 °F 81% 29.75 in 0.5 mi West 16.1 mph 27.6 mph 0.00 in Rain , Thunderstorm Heavy Thunderstorms and Rain
5:25 PM 66.0 °F 62.1 °F 87% 29.75 in 4.0 mi West 8.1 mph 21.9 mph 0.18 in Rain , Thunderstorm Thunderstorms and Rain
5:44 PM 66.9 °F 63.0 °F 87% 29.76 in 2.0 mi WSW 10.4 mph - 0.23 in Rain , Thunderstorm Thunderstorms and Rain
5:48 PM 66.2 °F 62.6 °F 88% 29.74 in 0.8 mi WNW 11.5 mph - 0.27 in Rain , Thunderstorm Heavy Thunderstorms and Rain
5:54 PM 66.0 °F 63.0 °F 90% 29.74 in 2.0 mi West 3.5 mph - 0.41 in Rain , Thunderstorm Thunderstorms and Rain
6:02 PM 66.0 °F 63.0 °F 90% 29.73 in 2.0 mi South 4.6 mph - 0.02 in Rain , Thunderstorm Light Thunderstorms and Rain
6:33 PM 66.0 °F 64.0 °F 93% 29.74 in 2.0 mi SSE 12.7 mph - 0.05 in Rain Light Rain
6:54 PM 66.0 °F 64.0 °F 93% 29.73 in 2.0 mi South 8.1 mph - 0.06 in Rain Light Rain
7:19 PM 66.0 °F 63.0 °F 90% 29.73 in 10.0 mi SSE 9.2 mph - 0.00 in Rain Light Rain
7:54 PM 66.0 °F 63.0 °F 90% 29.73 in 10.0 mi SSE 12.7 mph - 0.00 in   Mostly Cloudy
8:54 PM 66.0 °F 63.0 °F 90% 29.72 in 10.0 mi South 10.4 mph - N/A   Mostly Cloudy
9:54 PM 66.0 °F 62.1 °F 87% 29.73 in 10.0 mi SSW 6.9 mph - N/A   Mostly Cloudy
10:54 PM 66.0 °F 62.1 °F 87% 29.73 in 10.0 mi South 6.9 mph - N/A   Scattered Clouds
11:54 PM 66.0 °F 62.1 °F 87% 29.73 in 10.0 mi SSW 6.9 mph - N/A   Mostly Cloudy